THY168 LTFM-KLAX

Flight info

Callsign THY168
Flight time N/A
Altitude 40000
Route VADEN N618 GOL DCT UTEKA DCT SMI DCT ADULA DCT OBUTI DCT DEXIT DCT MAPOX DCT BIGGE DCT RAVLO Y70 OTBED L60 PENIL M144 BAGSO DCT REVNU DCT PIKIL/M085F360 DCT 56N020W 56N030W 56N040W 56N050W DCT JANJO/N0495F360 DCT DENSO DCT AGLOL DCT MERNU DCT XEXUL DCT BLUOX DCT RAP J158 DDY J107 NORRA J100 LAS Q70 HAILO DCT KOPLE BOGET2
Aircraft A359/H-SDE2E3GHIJ3J4J5LM1ORWXY/LB1D1

Departure

Time N/A
Airport İstanbul Airport (LTFM)

Arrival

Time 2026-04-22 17:01
Airport Los Angeles International Airport (KLAX)
Time Latitude Longitude Altitude Speed Heading
2026-04-22 16:26 35.10072 -117.01610 40102 ft 379 kts 241°
2026-04-22 16:26 35.07238 -117.07042 40104 ft 379 kts 241°
2026-04-22 16:27 35.04397 -117.12479 40099 ft 379 kts 241°
2026-04-22 16:27 35.01555 -117.17910 40100 ft 379 kts 241°
2026-04-22 16:28 34.98675 -117.23416 40102 ft 396 kts 241°
2026-04-22 16:28 34.95653 -117.29184 40102 ft 408 kts 240°
2026-04-22 16:29 34.92586 -117.35008 40115 ft 407 kts 240°
2026-04-22 16:29 34.89523 -117.40815 40128 ft 407 kts 240°
2026-04-22 16:30 34.86461 -117.46614 40136 ft 406 kts 240°
2026-04-22 16:30 34.83444 -117.52277 40136 ft 391 kts 239°
2026-04-22 16:31 34.81588 -117.54723 40152 ft 406 kts 224°
2026-04-22 16:31 34.79056 -117.56492 40158 ft 428 kts 210°
2026-04-22 16:31 34.76279 -117.57812 40054 ft 423 kts 210°
2026-04-22 16:31 34.73643 -117.59144 39385 ft 407 kts 211°
2026-04-22 16:32 34.71051 -117.60477 38004 ft 404 kts 211°
2026-04-22 16:32 34.68440 -117.61845 36298 ft 407 kts 211°
2026-04-22 16:32 34.65834 -117.63263 34703 ft 415 kts 211°
2026-04-22 16:32 34.63185 -117.64768 33543 ft 424 kts 211°
2026-04-22 16:33 34.60523 -117.66323 32698 ft 433 kts 211°
2026-04-22 16:33 34.57772 -117.67957 32065 ft 441 kts 211°
2026-04-22 16:33 34.55015 -117.69614 31436 ft 445 kts 211°
2026-04-22 16:33 34.52235 -117.71301 30826 ft 448 kts 211°
2026-04-22 16:34 34.49428 -117.72997 30217 ft 452 kts 210°
2026-04-22 16:34 34.46547 -117.74446 29528 ft 449 kts 205°
2026-04-22 16:34 34.43590 -117.75538 28847 ft 446 kts 198°
2026-04-22 16:34 34.40470 -117.75857 28199 ft 460 kts 183°
2026-04-22 16:35 34.37247 -117.75141 27300 ft 476 kts 169°
2026-04-22 16:35 34.34308 -117.73433 26404 ft 467 kts 153°
2026-04-22 16:35 34.31912 -117.70870 25558 ft 456 kts 137°
2026-04-22 16:35 34.30230 -117.67670 24736 ft 448 kts 120°
2026-04-22 16:36 34.29345 -117.64094 23947 ft 440 kts 105°
2026-04-22 16:36 34.28947 -117.60520 23044 ft 425 kts 101°
2026-04-22 16:36 34.28626 -117.57004 22114 ft 410 kts 101°
2026-04-22 16:36 34.28323 -117.53626 21192 ft 399 kts 101°
2026-04-22 16:37 34.28025 -117.50324 20204 ft 391 kts 101°
2026-04-22 16:37 34.27728 -117.47084 19281 ft 383 kts 102°
2026-04-22 16:37 34.27442 -117.43918 18646 ft 372 kts 101°
2026-04-22 16:37 34.27171 -117.40830 18268 ft 369 kts 101°
2026-04-22 16:38 34.26902 -117.37780 18180 ft 369 kts 101°
2026-04-22 16:38 34.26625 -117.34673 18186 ft 367 kts 101°
2026-04-22 16:38 34.26356 -117.31646 18188 ft 366 kts 101°
2026-04-22 16:38 34.26088 -117.28579 18160 ft 365 kts 101°
2026-04-22 16:39 34.25827 -117.25568 17617 ft 354 kts 101°
2026-04-22 16:39 34.25570 -117.22606 16598 ft 352 kts 101°
2026-04-22 16:39 34.25311 -117.19688 15668 ft 348 kts 101°
2026-04-22 16:39 34.25055 -117.16830 14881 ft 343 kts 101°
2026-04-22 16:40 34.24742 -117.13948 14394 ft 338 kts 107°
2026-04-22 16:40 34.23883 -117.11402 14209 ft 324 kts 130°
2026-04-22 16:40 34.20922 -117.08765 14184 ft 295 kts 172°
2026-04-22 16:41 34.20575 -117.08668 14187 ft 292 kts 176°
2026-04-22 16:41 34.18557 -117.08432 14183 ft 291 kts 184°
2026-04-22 16:41 34.16527 -117.08599 13758 ft 291 kts 195°
2026-04-22 16:41 34.15276 -117.09112 13507 ft 283 kts 208°
2026-04-22 16:42 34.13328 -117.11095 12993 ft 275 kts 234°
2026-04-22 16:42 34.12492 -117.13158 12520 ft 276 kts 250°
2026-04-22 16:42 34.12179 -117.14683 12283 ft 275 kts 256°
2026-04-22 16:42 34.11852 -117.16956 12155 ft 275 kts 258°
2026-04-22 16:43 34.11576 -117.19235 12066 ft 276 kts 258°
2026-04-22 16:43 34.11306 -117.21534 12013 ft 275 kts 258°
2026-04-22 16:43 34.11023 -117.23828 11961 ft 275 kts 258°
2026-04-22 16:43 34.10727 -117.26092 11913 ft 275 kts 257°
2026-04-22 16:44 34.10419 -117.28346 11865 ft 274 kts 257°
2026-04-22 16:44 34.10099 -117.30618 11813 ft 274 kts 257°
2026-04-22 16:44 34.09774 -117.32897 11765 ft 274 kts 257°
2026-04-22 16:44 34.09454 -117.35169 11716 ft 273 kts 257°
2026-04-22 16:45 34.09132 -117.37432 11688 ft 273 kts 257°
2026-04-22 16:45 34.08806 -117.39684 11658 ft 272 kts 257°
2026-04-22 16:45 34.08482 -117.41927 11614 ft 272 kts 256°
2026-04-22 16:45 34.08156 -117.44177 11591 ft 273 kts 256°
2026-04-22 16:46 34.07828 -117.46436 11574 ft 273 kts 256°
2026-04-22 16:46 34.07498 -117.48686 11549 ft 271 kts 256°
2026-04-22 16:46 34.06993 -117.50837 11352 ft 267 kts 246°
2026-04-22 16:46 34.06263 -117.52908 11102 ft 266 kts 244°
2026-04-22 16:47 34.05510 -117.54960 10865 ft 266 kts 244°
2026-04-22 16:47 34.04773 -117.56990 10622 ft 265 kts 244°
2026-04-22 16:47 34.04036 -117.59028 10391 ft 264 kts 244°
2026-04-22 16:47 34.03304 -117.61055 10248 ft 264 kts 244°
2026-04-22 16:48 34.02569 -117.63090 10212 ft 264 kts 244°
2026-04-22 16:48 34.01838 -117.65118 10219 ft 264 kts 244°
2026-04-22 16:48 34.01111 -117.67151 10219 ft 264 kts 245°
2026-04-22 16:48 34.00600 -117.69249 10193 ft 266 kts 257°
2026-04-22 16:49 34.00350 -117.71459 10071 ft 266 kts 260°
2026-04-22 16:49 34.00146 -117.73716 9948 ft 267 kts 260°
2026-04-22 16:49 33.99946 -117.75903 9776 ft 266 kts 260°
2026-04-22 16:49 33.99743 -117.78103 9523 ft 265 kts 260°
2026-04-22 16:50 33.99526 -117.80329 9196 ft 265 kts 260°
2026-04-22 16:50 33.99310 -117.82505 8858 ft 264 kts 261°
2026-04-22 16:50 33.99094 -117.84725 8508 ft 264 kts 261°
2026-04-22 16:50 33.98883 -117.86897 8180 ft 263 kts 261°
2026-04-22 16:51 33.98668 -117.89098 8001 ft 261 kts 261°
2026-04-22 16:51 33.98469 -117.91199 7970 ft 246 kts 261°
2026-04-22 16:51 33.98278 -117.93184 7972 ft 229 kts 261°
2026-04-22 16:51 33.98097 -117.95009 7898 ft 216 kts 261°
2026-04-22 16:52 33.97924 -117.96753 7955 ft 196 kts 261°
2026-04-22 16:52 33.97772 -117.98291 7988 ft 177 kts 260°
2026-04-22 16:52 33.97634 -117.99693 7984 ft 160 kts 260°
2026-04-22 16:52 33.97510 -118.00952 7892 ft 146 kts 260°
2026-04-22 16:53 33.97404 -118.02167 7660 ft 145 kts 260°
2026-04-22 16:53 33.97288 -118.03388 7362 ft 147 kts 260°
2026-04-22 16:53 33.97166 -118.04608 7003 ft 148 kts 260°
2026-04-22 16:53 33.97038 -118.05858 6562 ft 153 kts 261°
2026-04-22 16:54 33.96906 -118.07156 6106 ft 156 kts 261°
2026-04-22 16:54 33.96775 -118.08447 5697 ft 158 kts 261°
2026-04-22 16:54 33.96639 -118.09773 5259 ft 160 kts 261°
2026-04-22 16:54 33.96501 -118.11122 4824 ft 162 kts 261°
2026-04-22 16:55 33.96363 -118.12475 4397 ft 166 kts 261°
2026-04-22 16:55 33.96222 -118.13863 4084 ft 166 kts 261°
2026-04-22 16:55 33.96084 -118.15211 3887 ft 160 kts 261°
2026-04-22 16:55 33.95952 -118.16526 3706 ft 153 kts 261°
2026-04-22 16:56 33.95826 -118.17765 3550 ft 148 kts 260°
2026-04-22 16:56 33.95699 -118.18994 3372 ft 148 kts 260°
2026-04-22 16:56 33.95574 -118.20226 3188 ft 150 kts 260°
2026-04-22 16:56 33.95449 -118.21462 2984 ft 150 kts 261°
2026-04-22 16:57 33.95323 -118.22700 2794 ft 149 kts 260°
2026-04-22 16:57 33.95196 -118.23940 2589 ft 149 kts 260°
2026-04-22 16:57 33.95071 -118.25176 2396 ft 148 kts 260°
2026-04-22 16:57 33.94947 -118.26397 2193 ft 148 kts 260°
2026-04-22 16:58 33.94861 -118.27238 2058 ft 149 kts 260°
2026-04-22 16:58 33.94694 -118.28885 1802 ft 149 kts 260°
2026-04-22 16:58 33.94569 -118.30109 1582 ft 148 kts 260°
2026-04-22 16:58 33.94440 -118.31338 1377 ft 147 kts 259°
2026-04-22 16:59 33.94298 -118.32580 1085 ft 149 kts 261°
2026-04-22 16:59 33.94201 -118.33807 877 ft 147 kts 264°
2026-04-22 16:59 33.94054 -118.35028 688 ft 146 kts 261°
2026-04-22 16:59 33.93930 -118.36227 496 ft 145 kts 264°
2026-04-22 17:00 33.93818 -118.37422 315 ft 143 kts 263°
2026-04-22 17:00 33.93596 -118.39668 124 ft 115 kts 263°
2026-04-22 17:00 33.93515 -118.40480 130 ft 87 kts 263°
2026-04-22 17:01 33.93489 -118.41012 132 ft 38 kts 284°
2026-04-22 17:01 33.93528 -118.41150 127 ft 0 kts 294°
2026-04-22 17:03 33.93530 -118.41154 132 ft 2 kts 296°
2026-04-22 17:03 33.93539 -118.41172 125 ft 0 kts 302°
2026-04-22 17:04 33.93544 -118.41182 127 ft 5 kts 302°
2026-04-22 17:04 33.93576 -118.41231 132 ft 9 kts 317°
2026-04-22 17:04 33.93633 -118.41266 129 ft 10 kts 342°
2026-04-22 17:04 33.93707 -118.41275 124 ft 11 kts
2026-04-22 17:05 33.93766 -118.41263 127 ft 0 kts 12°
2026-04-22 17:05 33.93771 -118.41261 129 ft 6 kts 12°
2026-04-22 17:05 33.93824 -118.41221 128 ft 7 kts 46°
2026-04-22 17:06 33.93869 -118.41182 126 ft 9 kts 21°
2026-04-22 17:06 33.93938 -118.41176 128 ft 10 kts 357°
2026-04-22 17:06 33.94007 -118.41184 129 ft 10 kts 353°
2026-04-22 17:06 33.94081 -118.41195 129 ft 12 kts 353°
2026-04-22 17:07 33.94109 -118.41199 129 ft 0 kts 353°
2026-04-22 17:07 33.94124 -118.41201 129 ft 3 kts 353°
2026-04-22 17:07 33.94129 -118.41202 130 ft 0 kts 353°
2026-04-22 17:09 33.94146 -118.41200 130 ft 3 kts 17°
2026-04-22 17:09 33.94157 -118.41186 132 ft 1 kts 52°
2026-04-22 17:09 33.94162 -118.41153 132 ft 6 kts 82°
2026-04-22 17:10 33.94163 -118.41151 132 ft 0 kts 81°
2026-04-22 17:10 33.94163 -118.41149 132 ft 1 kts 79°
2026-04-22 17:10 33.94164 -118.41145 132 ft 0 kts 77°
2026-04-22 17:10 33.94165 -118.41139 132 ft 1 kts 75°
2026-04-22 17:11 33.94167 -118.41132 132 ft 1 kts 74°
2026-04-22 17:11 33.94168 -118.41128 132 ft 3 kts 74°
2026-04-22 17:11 33.94171 -118.41114 124 ft 0 kts 74°